OBJECT A

Satellite information

Favourite Embed

Satellite Type and Status

UNKNOWNIN ORBIT

Key statistics

Satellite OBJECT A at a glance.

Uptime

475

Days in orbit

Revolutions

≈ 15.1

Per day

Orbit

SSO

Sun Synchronous Orbit

Inclination

97.6

Latest

Satellite identification and parameters

Extended collection of information and parameters for OBJECT A.

Object identification

Identified? True

Debris? False

Object name: OBJECT A

International designator: 2024-095A

Object number (NORAD): 59810

Object ID (CCSDS): 59810

Country: PEOPLES REPUBLIC OF CHINA (PRC)

Current information (Y/N): Y

RCS size: LARGE

Orbital parameters

Period: 95.305 minutes

Inclination: 97.5615 deg

SMA: 6911.452 km

Apoapsis: 534.556 km

Periapsis: 532.078 km

RAAN: 328.6746 deg

Eccentricy: 0.00017931

Argument of periapsis: 273.983 deg

Mean anomaly: 86.1195 deg

Mean motion: 15.10945553 rev/day

Mean motion (dot): 0.00006013 rev/day2

B* drag term: 0.00036435265 1/REarth

Two-line elements (TLE)

Creation date: Sept. 8, 2025, 3:16 a.m.

Reference frame: TEME

Reference center: EARTH

Epoch: Sept. 7, 2025, 11:38 p.m. UTC

TLE line 0: 0 OBJECT A

TLE line 1: 1 59810U 24095A 25250.98531420 .00006013 00000-0 36435-3 0 9993

TLE line 2: 2 59810 97.5615 328.6746 0001793 273.9830 86.1195 15.10945553 71529

Live tracking on map

Real-time ground track for satellite OBJECT A.

In-orbit conjunctions

There are no conjunctions computed for OBJECT A, at the moment. Check back to stay up to date, as we update our databases every day.

Go to all conjunctions

Associated space launch

Carried 4 satellites to SSO: * Wuhan-1 * Chutian 001 * Tianyan 22 * Lingque-3 01

OBJECT A was lifted into orbit during the mission ‘Kuaizhou-11 | Wuhan-1 and others’, on board a Kuaizhou-11 space rocket.

The launch took place on May 21, 2024, 4:15 a.m. from Launch Area 95A.

For more information about the launch, click the button.

Launch to space Kuaizhou-11 | Wuhan-1 and others
Kuaizhou-11 | Wuhan-1 and others

Agency: N/A

Status: Launch Successful

Launch date: May 21, 2024, 4:15 a.m. UTC

Rocket: Kuaizhou-11

Launch pad: Launch Area 95A

Location: Jiuquan Satellite Launch Center, People's Republic of China

...

Latest news about this satellite

There are no fresh news available about this satellite. Check back as we update our databases every day.


Newsletter sign-up

Weekly statistics, charts and insights to help you stay on top of the space industry.